This is the latest recevied weather packets stored in our database for station/object K4GSL. If no packets are shown the sender has not sent any weather packets the latest 10 day(s).
| Time | Temp. | Humidity | Pressure | Rain* | Wind** | Luminosity | Snow |
|---|---|---|---|---|---|---|---|
| 1777895977 | 11.11° C | 94% | 1016.6 hPa | 0 mm | - | 0 W/m² | - |
| 1777895675 | 11.11° C | 94% | 1016.6 hPa | 0 mm | - | 0 W/m² | - |
| 1777895372 | 11.11° C | 95% | 1016.7 hPa | 0 mm | - | 0 W/m² | - |
| 1777895070 | 11.11° C | 95% | 1016.6 hPa | 0 mm | - | 0 W/m² | - |
| 1777894766 | 11.11° C | 95% | 1016.6 hPa | 0 mm | - | 0 W/m² | - |
| 1777894463 | 10.56° C | 94% | 1016.6 hPa | 0 mm | - | 0 W/m² | - |
| 1777894161 | 10.56° C | 94% | 1016.4 hPa | 0 mm | - | 0 W/m² | - |
| 1777893858 | 11.11° C | 93% | 1016.5 hPa | 0 mm | - | 0 W/m² | - |
| 1777893554 | 11.11° C | 93% | 1016.3 hPa | 0 mm | - | 0 W/m² | - |
| 1777893250 | 11.67° C | 93% | 1016.3 hPa | 0 mm | - | 0 W/m² | - |
| 1777892947 | 11.67° C | 93% | 1016.1 hPa | 0 mm | - | 0 W/m² | - |
| 1777892644 | 11.67° C | 93% | 1016.3 hPa | 0 mm | - | 0 W/m² | - |
| 1777892339 | 12.22° C | 93% | 1016.2 hPa | 0 mm | - | 0 W/m² | - |
| 1777892035 | 12.22° C | 93% | 1016.1 hPa | 0 mm | - | 0 W/m² | - |
| 1777891733 | 11.67° C | 94% | 1016.1 hPa | 0 mm | - | 0 W/m² | - |
| 1777891429 | 11.67° C | 95% | 1016.1 hPa | 0 mm | - | 0 W/m² | - |
| 1777891125 | 11.67° C | 95% | 1016.3 hPa | 0 mm | - | 0 W/m² | - |
| 1777890820 | 11.67° C | 95% | 1015.9 hPa | 0 mm | - | 0 W/m² | - |
| 1777890516 | 11.67° C | 95% | 1015.8 hPa | 0 mm | - | 0 W/m² | - |
| 1777890212 | 11.67° C | 95% | 1015.7 hPa | 0 mm | - | 0 W/m² | - |
| 1777889908 | 11.67° C | 95% | 1015.7 hPa | 0 mm | - | 0 W/m² | - |
| 1777889606 | 11.67° C | 95% | 1015.7 hPa | 0 mm | - | 0 W/m² | - |
| 1777889304 | 11.67° C | 96% | 1015.7 hPa | 0 mm | - | 0 W/m² | - |
| 1777889001 | 11.67° C | 96% | 1015.5 hPa | 0 mm | - | 0 W/m² | - |
| 1777888699 | 11.67° C | 96% | 1015.5 hPa | 0 mm | - | 0 W/m² | - |
* Rain latest hour (hover to see other rain measurements)
** Current wind speed in m/s (hover to see current wind gust speed)